Résultats de la compétition "Inter ligue Picardie" du 15-02-2009 organisée par le club 0207
     
  Télécharger le fichier CSV.  
     
     

 Circuit "Circuit A"

Licence Nom Prénom Temps CN
précédent
Score sur
la course
Différence
12967LEPOUTREBenjamin1:00:2775997906+307
11342LECLERCThomas1:03:2471357539+404
14909JOLYFrancois1:13:3860466491+445
14372DUBOISRemi1:14:2964116417+6
7049LEROYSimon1:15:2276116342-1269
1233CREFCOEURPhilippe1:16:4060456234+189
722FLICOTEAUXRaphael1:17:3661616159-2
9873AVEDIKIANMathieu1:18:5960016051+50
10869DENIERSimon1:27:56N/A5435N/A
16563DUMONTJ-Luc1:36:49N/A4937N/A
1814LERICHEFranck1:41:2646204712+92
13760BOURGOGNEGaetan1:43:1640554628+573
13278TAELEMANSPhilippe1:49:0454944382-1112

  Indice de confiance du circuit (moyenne des différences entre CN et score sur la course des 3 à 10 premiers) : 596




 Circuit "Circuit B"

Licence Nom Prénom Temps CN
précédent
Score sur
la course
Différence
17576JOLYPhilippe1:04:1757775423-354
12350PRUNIERJ-Marc1:08:2441885096+908
13757PRINSGregory1:11:3549724870-102
17068THIERYSebastien1:12:4951204787-333
16954BERNACJordan1:13:0141834774+591
13756FLANDRINGautier1:16:1757414570-1171
13673BLUMJean-Guy1:18:1750364453-583
14227DESRUMAUXMarie1:20:1148064348-458
20178TSIRTSIKOLOUArnaud1:20:2439654336+371
6891CHARLIERRomuald1:20:5431074309+1202
18355BRUNOOlivier1:21:2640554281+226
14059TEXIERSamuel1:21:3445774274-303
15831GOLECCharly1:24:3328364123+1287
18651DROGOULMatthieu1:25:0339034099+196
16281BIZOTLaurent1:25:3139374076+139
13271CZERNIAKJerome1:30:5824853832+1347
17895LECLERCJessy1:33:5847453710-1035
15733BAILLETArnaud2:01:49N/A2862N/A
20994BAILLETEmilien2:12:29N/A2631N/A
21294DELETREMaxime2:22:52N/A2440N/A
19128COSSARTJean2:54:20N/A2000N/A
14240FUCHSSylvainN/A29160-2916
20550REGNIEZErwanN/AN/A0N/A

  Indice de confiance du circuit (moyenne des différences entre CN et score sur la course des 3 à 10 premiers) : 506




 Circuit "Circuit C"

Licence Nom Prénom Temps CN
précédent
Score sur
la course
Différence
14673LECLERCBenjamin0:55:2361805491-689
20040GOUVERNEURAntoine0:59:3842185100+882
12468RADONDYDaniel1:04:3160844714-1370
17628MANIERELouis1:07:1951504518-632
18826CRETERémi1:10:5249274291-636
21293DELHAYEric1:12:17N/A4207N/A
11612DELTOMBEFrederic1:12:3435364191+655
5421LOTERIEJ-Francois1:13:4357044125-1579
18786SCHIMPFLaurent1:16:4039083967+59
11655ANDRECamille1:18:1248853889-996
6998FONTAINEThibault1:22:48N/A3673N/A
20648MALAKMaxence1:24:2421093603+1494
15195THORELBruno1:24:5230623583+521
10079PAPINPhilippe1:25:1137653570-195
6747GORGUEJean1:28:5242853422-863
21213BAUDREYChristophe1:30:19N/A3367N/A
17367BREDOWChristophe1:42:2523062969+663
18825GUILLOTINJean-claude1:43:1141762947-1229
20184SONNECKWilliam1:46:4632652848-417
21311LE TETOURCharles-adrien1:49:55N/A2767N/A
20722MOREAU-DESCOINGSFrançois2:37:21N/A1933N/A

  Indice de confiance du circuit (moyenne des différences entre CN et score sur la course des 3 à 10 premiers) : 625




 Circuit "Circuit D"

Licence Nom Prénom Temps CN
précédent
Score sur
la course
Différence
8081LEGEREPascal0:59:3252364886-350
18306MONNOTGilbert1:03:4743094560+251
20423DLOUHAMarie1:05:5847334409-324
6995DECARPIGNYGwladys1:10:0440524151+99
9427LERICHEClotilde1:13:3546713953-718
17530CHANDEYSSONLéa1:13:5124003939+1539
13838BOUTINDominique1:15:2534683857+389
14012FENEUILOlivier1:21:1229793582+603
17173ZLOTOROWIEZPhilippe1:21:5537573551-206
9426LERICHECamille1:22:4139753518-457
21292PASCUALJean Raymond1:34:06N/A3091N/A
13430FAUVETChrystelle1:39:3035782923-655
21119PROISYStephanie1:42:37N/A2835N/A
16229VERCAUTERENM-Claude1:48:5733372670-667
13279PRUVOSTVeronique1:55:4128892514-375
13272CZERNIAKSidonie2:06:4120922296+204
19155GOURLAINMarguerite-marie2:17:4120202113+93
16249DETOCManon2:33:4531881892-1296

  Indice de confiance du circuit (moyenne des différences entre CN et score sur la course des 3 à 10 premiers) : 449




 Circuit "Circuit E"

Licence Nom Prénom Temps CN
précédent
Score sur
la course
Différence
1947POULAINJoel0:43:4453125808+496
2034BAROUXJacky0:43:5958675775-92
10361COXAnthony0:44:3451285699+571
5137AVEDIKIANNicolas0:58:5640114310+299
8947BOULANGERPatrick0:59:2138954279+384
16227VERCAUTERENFrancois1:02:0227234094+1371
9997MOUEZYAndre1:02:4642974047-250
12963CASTIERPhilippe1:05:3741753871-304
14302CAMPBELLNick1:06:2647713823-948
985ROSINIDany1:07:0136373790+153
7215LEROYJacques1:08:3343893705-684
13174BARDURYEmile1:08:3736353702+67
9523WULLUSJ-Noel1:08:5635963685+89
16398GRIMBERTHerve1:09:0832533674+421
13270ROUXCatherine1:11:4836053537-68
14900PRESSONBernard1:12:0834893521+32
18480PAULETSerge1:13:2640473459-588
9165BAILLEULJ-Paul1:14:3340363407-629
9164TORZDidier1:14:4432623399+137
15083BATTEUXJean-Paul1:17:32N/A3276N/A
19812SOULATDenis1:20:4935943143-451
9235CORDEIRO MENDESMyriam1:21:1137443129-615
9406AVEDIKIANRachel1:21:1729593125+166
10766ROBYNLaurence1:29:1438532846-1007
7216LEROYOdile1:35:5031932650-543
13031DELVALGilles1:39:4425692547-22
1948POULAINOdile1:51:3426952277-418
14246CARRIERValerie1:51:4133582274-1084
18827CRETEAngélique1:58:1930332147-886
21330BEIGNIEGauthier2:03:39N/A2054N/A
15585FENEUILCatherine2:11:58N/A1925N/A

  Indice de confiance du circuit (moyenne des différences entre CN et score sur la course des 3 à 10 premiers) : 243




 Circuit "Circuit F"

Licence Nom Prénom Temps CN
précédent
Score sur
la course
Différence
1583TAILLANDIERGuy0:43:1251394945-194
2878PATURETBertrand0:46:4642984568+270
5597EJSMONTJean0:49:4944564288-168
7045LOTERIELaurine0:50:5338464198+352
12646BLUMVirginie0:51:0139774187+210
17067MANIEREMarie0:52:0446284103-525
8180L'HUILLIERPhilippe0:52:2633154074+759
21056VAN HONACKERPascal1:00:34N/A3527N/A
7044LOTERIEMurielle1:00:4540453516-529
6094LEROUEILM-Paule1:01:2638843477-407
989ROSINIVeronique1:01:3128633473+610
11343CORDEIRO MENDESPaulo1:02:0132383445+207
10639BOULANGERIsabelle1:07:1129453180+235
16205HUMBERTCLAUDEJ-Paul1:08:0132763141-135
1381DIEUDONNERoland1:08:1436683131-537
20676DELINSELLEAlexis1:11:14N/A2999N/A
21057DECEUNINCKColette1:16:10N/A2805N/A
20215SIXPauline1:19:4516552679+1024
13429MILLEVILLEHerve1:20:0424102668+258
10081TORZ-DRUONMagali1:23:3227182557-161
21116PROISYJean-claude1:26:50N/A2460N/A
17096ADAMIsabelle1:34:2919742261+287
20435THOMASAmandine1:41:0319032114+211
20995BAILLETLaëtitia1:58:06N/A1809N/A
11344CORDEIRO MENDESCamilleN/A33980-3398

  Indice de confiance du circuit (moyenne des différences entre CN et score sur la course des 3 à 10 premiers) : 244




 Circuit "Circuit G"

Licence Nom Prénom Temps CN
précédent
Score sur
la course
Différence
6999MAHIEUPierre0:31:2960795101-978
16226VERCAUTERENThomas0:40:3732923954+662
20177WATRELOTJulien0:44:1117063635+1929
1380DIEUDONNEMadeleine0:48:4540923294-798
20195DESOOMERJean-jacques0:50:01N/A3211N/A
20200LEPERQUEOphelie0:59:5130172683-334
19238CAMASMandye1:00:0828902671-219
17073VANHAUWAERTHeloise1:03:0820652544+479
17344LARGILLEREEugenie1:05:3828262447-379
20224SELINGUECécile1:05:4718622441+579
14245RICHARDNicole1:12:2331362219-917
15586FENEUILCoralie1:16:4219152094+179
15894LUDEWIG-JAMESCarol1:20:0423832006-377
18299GOURLAINMathilde1:24:1818791905+26
20199VIEILLEMarine1:29:26N/A1796N/A
18828CRETECamille1:31:4318891751-138
13672BLUMSylvain1:43:4123701549-821
20684STRATMAINSLudovic2:15:26N/A1186N/A
20176GUILLOTINNicolas2:26:2620931097-996
21021ROLLINRomainN/AN/A0N/A
21118PROISYChristineN/AN/A0N/A

  Indice de confiance du circuit (moyenne des différences entre CN et score sur la course des 3 à 10 premiers) : 578




 Circuit "Circuit H"

Licence Nom Prénom Temps CN
précédent
Score sur
la course
Différence
9874AVEDIKIANVincent0:38:0154515628+177
14665SZYMANOWSKIValentin0:43:2034174938+1521
7200SZYMANOWSKIFabrice0:49:3246254320-305
17345LARGILLERELucien0:51:3447734149-624
19411DUBOISXavier0:52:0041254115-10
19136TANTARTDelphine0:55:4736993836+137
17071VANHAUWAERTClaire0:57:3834543712+258
19240MAZYFrançois-rémi0:58:4037973647-150
13744PAULETGuillaume0:59:0641803620-560
14911LAMINETTEPauline0:59:3436833592-91
9171POULAINYannick0:59:3840453588-457
15170DESREUMAUXVictor1:00:3638923531-361
19526SOULATMarion1:11:1032913006-285
15587FENEUILSebastien1:17:4321002753+653
3600LAZAROWICZRichard1:20:0529352672-263
19118HENRYJulienN/A24070-2407

  Indice de confiance du circuit (moyenne des différences entre CN et score sur la course des 3 à 10 premiers) : 383




 Circuit "Circuit I"

Licence Nom Prénom Temps CN
précédent
Score sur
la course
Différence
21329MAZYPierre-louis0:46:44N/A2166N/A
15584FENEUILHugo0:46:5816322155+523
19744VERCAUTERENClémence1:10:53N/A1428N/A
18830CRETEJulien1:19:0820071279-728
21216BAUDREYPierrick1:45:32N/A959N/A
21217BAUDREYSylvie1:45:35N/A959N/A
21215BAUDREYCéline2:10:04N/A778N/A
21212VAYSSATRomain2:25:57N/A694N/A

  Indice de confiance du circuit (moyenne des différences entre CN et score sur la course des 3 à 10 premiers) : 725




 Circuit "Circuit IBis"

Licence Nom Prénom Temps CN
précédent
Score sur
la course
Différence
16228VERCAUTERENAntoine0:33:0833013736+435
9172POULAINGael0:49:5527732480-293
18213LARGILLÈRENicolas0:59:2524772084-393
21214BAUDREYFlorian1:22:35N/A1499N/A
21315LEBLONDLucas1:29:22N/A1385N/A
21117PROISYJean-christophe1:35:21N/A1298N/A
18829CRETEJuliette1:45:3213761173-203
21323VANOVERBERGHECamilleN/AN/A0N/A
21157ANCELINThomasN/AN/A0N/A

  Indice de confiance du circuit (moyenne des différences entre CN et score sur la course des 3 à 10 premiers) : 403






 Retour